PLF103 UDYZ-EPWA

Flight info

Callsign PLF103
Flight time N/A
Altitude 36000
Route INDUR N161 YAVUZ UN161 ERZ UW704 CRM UL746 ODERO DCT KARIL DCT KENIN DCT ORTEB DCT KONZI DCT LOGDA
Aircraft B738/M-SDE2E3FGHIRWXY/LB1

Departure

Time 2026-05-04 10:00
Airport Zvartnots International Airport (UDYZ)

Arrival

Time N/A
Airport Warsaw Chopin Airport (EPWA)
Time Latitude Longitude Altitude Speed Heading
2026-05-04 09:25 40.15074 44.41437 2859 ft 0 kts 182°
2026-05-04 09:52 40.15073 44.41437 2859 ft 0 kts 182°
2026-05-04 09:53 40.15064 44.41436 2859 ft 2 kts 179°
2026-05-04 09:53 40.15036 44.41437 2859 ft 5 kts 178°
2026-05-04 09:53 40.14994 44.41420 2859 ft 7 kts 236°
2026-05-04 09:53 40.14982 44.41339 2859 ft 10 kts 269°
2026-05-04 09:54 40.14981 44.41227 2859 ft 13 kts 269°
2026-05-04 09:54 40.14981 44.41093 2859 ft 16 kts 269°
2026-05-04 09:54 40.14980 44.40929 2859 ft 19 kts 269°
2026-05-04 09:54 40.14978 44.40741 2859 ft 22 kts 269°
2026-05-04 09:55 40.14977 44.40523 2859 ft 25 kts 270°
2026-05-04 09:55 40.14975 44.40281 2858 ft 28 kts 269°
2026-05-04 09:55 40.14975 44.40012 2858 ft 29 kts 269°
2026-05-04 09:55 40.14980 44.39747 2858 ft 29 kts 269°
2026-05-04 09:56 40.14979 44.39481 2858 ft 29 kts 270°
2026-05-04 09:56 40.14977 44.39218 2858 ft 28 kts 270°
2026-05-04 09:56 40.14977 44.38958 2858 ft 28 kts 268°
2026-05-04 09:56 40.14975 44.38703 2857 ft 27 kts 269°
2026-05-04 09:57 40.14974 44.38497 2857 ft 17 kts 270°
2026-05-04 09:57 40.14962 44.38389 2857 ft 10 kts 226°
2026-05-04 09:57 40.14898 44.38371 2857 ft 9 kts 180°
2026-05-04 09:57 40.14832 44.38370 2857 ft 9 kts 180°
2026-05-04 09:58 40.14754 44.38370 2857 ft 10 kts 179°
2026-05-04 09:58 40.14721 44.38406 2857 ft 9 kts 87°
2026-05-04 09:58 40.14721 44.38615 2857 ft 52 kts 91°
2026-05-04 10:00 40.12948 44.47164 5979 ft 172 kts 159°
2026-05-04 10:00 40.11758 44.47540 6400 ft 184 kts 181°
2026-05-04 10:02 40.09559 44.34376 10119 ft 282 kts 268°
2026-05-04 10:04 40.10219 44.13556 15029 ft 360 kts 268°
2026-05-04 10:04 40.10324 44.10346 16029 ft 360 kts 267°
2026-05-04 10:04 40.10429 44.07064 16937 ft 363 kts 267°
2026-05-04 10:04 40.10531 44.03776 17794 ft 366 kts 266°
2026-05-04 10:05 40.10632 44.00453 18666 ft 369 kts 267°
2026-05-04 10:05 40.10732 43.97114 19387 ft 374 kts 267°
2026-05-04 10:05 40.10833 43.93716 20178 ft 378 kts 266°
2026-05-04 10:05 40.10935 43.90295 20956 ft 381 kts 267°
2026-05-04 10:06 40.11035 43.86872 21663 ft 385 kts 267°
2026-05-04 10:06 40.11137 43.83329 22334 ft 390 kts 267°
2026-05-04 10:06 40.11239 43.79820 23049 ft 393 kts 267°
2026-05-04 10:08 40.11312 43.58186 27145 ft 403 kts 261°
2026-05-04 10:08 40.11073 43.54530 27814 ft 404 kts 260°
2026-05-04 10:08 40.10832 43.50885 28374 ft 407 kts 260°
2026-05-04 10:08 40.10596 43.47195 28960 ft 409 kts 260°
2026-05-04 10:09 40.10371 43.43521 29579 ft 410 kts 260°
2026-05-04 10:09 40.10152 43.39822 30166 ft 412 kts 260°
2026-05-04 10:09 40.09934 43.36079 30501 ft 419 kts 261°
2026-05-04 10:09 40.09717 43.32285 31039 ft 420 kts 260°
2026-05-04 10:10 40.09501 43.28471 31697 ft 419 kts 260°
2026-05-04 10:10 40.09290 43.24705 32357 ft 417 kts 261°
2026-05-04 10:10 40.09079 43.20954 33032 ft 414 kts 260°
2026-05-04 10:10 40.08872 43.17289 33678 ft 411 kts 261°
2026-05-04 10:11 40.08661 43.13582 34144 ft 412 kts 260°
2026-05-04 10:11 40.08446 43.09845 34511 ft 413 kts 260°
2026-05-04 10:11 40.08231 43.06130 34851 ft 415 kts 261°
2026-05-04 10:11 40.08013 43.02387 35071 ft 415 kts 261°
2026-05-04 10:12 40.07794 42.98636 35275 ft 415 kts 261°
2026-05-04 10:12 40.07574 42.94891 35480 ft 416 kts 261°
2026-05-04 10:12 40.07355 42.91161 35686 ft 414 kts 261°
2026-05-04 10:12 40.07133 42.87407 35891 ft 417 kts 260°
2026-05-04 10:13 40.06683 42.79847 35986 ft 416 kts 261°
2026-05-04 10:13 40.06237 42.72370 35971 ft 414 kts 261°
2026-05-04 10:14 40.05785 42.64919 35966 ft 417 kts 261°
2026-05-04 10:16 40.03884 42.34806 35958 ft 418 kts 259°
2026-05-04 10:16 40.03367 42.27298 35930 ft 417 kts 259°
2026-05-04 10:17 40.02845 42.19818 35945 ft 418 kts 259°
2026-05-04 10:19 40.00701 41.89670 35944 ft 419 kts 259°
2026-05-04 10:19 40.00152 41.82099 35940 ft 423 kts 259°
2026-05-04 10:20 39.99601 41.74537 35950 ft 421 kts 259°
2026-05-04 10:20 39.99054 41.66972 35932 ft 423 kts 259°
2026-05-04 10:21 39.98507 41.59331 35932 ft 424 kts 259°
2026-05-04 10:21 39.97959 41.51701 35940 ft 424 kts 259°
2026-05-04 10:22 39.97127 41.40302 35953 ft 423 kts 259°
2026-05-04 10:23 39.96559 41.32655 35943 ft 422 kts 259°
2026-05-04 10:25 40.01234 41.02188 35949 ft 451 kts 286°
2026-05-04 10:25 40.03620 40.94716 35938 ft 449 kts 286°
2026-05-04 10:26 40.05978 40.87199 36152 ft 448 kts 286°
2026-05-04 10:26 40.07152 40.83413 35996 ft 453 kts 286°
2026-05-04 10:26 40.08314 40.79649 35929 ft 447 kts 285°
2026-05-04 10:27 40.10621 40.72131 35913 ft 450 kts 285°
2026-05-04 10:27 40.12938 40.64510 35909 ft 451 kts 285°
2026-05-04 10:28 40.15241 40.56913 35910 ft 452 kts 286°
2026-05-04 10:28 40.17547 40.49297 35901 ft 452 kts 285°
2026-05-04 10:29 40.19852 40.41636 35910 ft 458 kts 286°
2026-05-04 10:29 40.22168 40.33937 35909 ft 455 kts 286°
2026-05-04 10:30 40.24458 40.26305 35916 ft 455 kts 285°
2026-05-04 10:30 40.26776 40.18542 35903 ft 458 kts 285°
2026-05-04 10:31 40.29080 40.10815 35903 ft 457 kts 285°
2026-05-04 10:32 40.37120 39.83673 35899 ft 461 kts 286°
2026-05-04 10:33 40.39414 39.75880 35889 ft 461 kts 286°
2026-05-04 10:33 40.41721 39.68021 35899 ft 462 kts 286°
2026-05-04 10:34 40.44017 39.60146 35882 ft 460 kts 286°
2026-05-04 10:34 40.46276 39.52364 35881 ft 463 kts 286°
2026-05-04 10:35 40.48569 39.44430 35874 ft 465 kts 286°
2026-05-04 10:35 40.50840 39.36559 35869 ft 462 kts 286°
2026-05-04 10:36 40.53117 39.28641 35873 ft 464 kts 285°
2026-05-04 10:36 40.55373 39.20767 35859 ft 462 kts 285°
2026-05-04 10:37 40.57631 39.12855 35857 ft 467 kts 286°
2026-05-04 10:37 40.59917 39.04826 35842 ft 467 kts 285°
2026-05-04 10:39 40.67773 38.76921 35833 ft 468 kts 286°
2026-05-04 10:40 40.69974 38.68941 35829 ft 467 kts 286°
2026-05-04 10:40 40.72194 38.60867 35823 ft 467 kts 286°
2026-05-04 10:41 40.74405 38.52824 35815 ft 469 kts 287°
2026-05-04 10:41 40.76604 38.44794 35810 ft 469 kts 287°
2026-05-04 10:42 40.78811 38.36711 35805 ft 470 kts 287°
2026-05-04 10:42 40.81006 38.28645 35799 ft 469 kts 286°
2026-05-04 10:43 40.83197 38.20560 35799 ft 470 kts 286°
2026-05-04 10:45 40.91931 37.88079 35799 ft 472 kts 286°
2026-05-04 10:45 40.94108 37.79920 35797 ft 470 kts 287°
2026-05-04 10:46 40.96270 37.71791 35795 ft 470 kts 287°
2026-05-04 10:46 40.98429 37.63650 35788 ft 471 kts 287°
2026-05-04 10:47 41.00577 37.55526 35787 ft 469 kts 287°
2026-05-04 10:47 41.02721 37.47384 35789 ft 470 kts 287°
2026-05-04 10:49 41.11243 37.14738 35801 ft 471 kts 287°
2026-05-04 10:50 41.13367 37.06530 35784 ft 471 kts 287°
2026-05-04 10:52 41.21800 36.73691 35771 ft 472 kts 287°
2026-05-04 10:52 41.23900 36.65441 35772 ft 472 kts 287°
2026-05-04 10:54 41.32294 36.32443 35770 ft 474 kts 287°
2026-05-04 10:56 41.40671 35.99244 35771 ft 475 kts 287°
2026-05-04 10:57 41.42749 35.90932 35777 ft 475 kts 288°
2026-05-04 10:57 41.44832 35.82571 35780 ft 475 kts 288°
2026-05-04 10:58 41.46905 35.74215 35782 ft 476 kts 288°
2026-05-04 10:58 41.48971 35.65858 35793 ft 475 kts 288°
2026-05-04 10:59 41.51037 35.57479 35787 ft 476 kts 288°
2026-05-04 10:59 41.53080 35.49155 35790 ft 476 kts 288°
2026-05-04 11:00 41.55126 35.40787 35780 ft 477 kts 288°
2026-05-04 11:02 41.63258 35.07237 35792 ft 476 kts 288°
2026-05-04 11:05 41.78274 34.43982 35754 ft 476 kts 289°
2026-05-04 11:06 41.80242 34.35562 35751 ft 478 kts 289°
2026-05-04 11:06 41.82223 34.27045 35749 ft 478 kts 288°
2026-05-04 11:10 41.95805 33.67717 35796 ft 478 kts 288°
2026-05-04 11:12 42.02353 33.33275 35797 ft 476 kts 286°
2026-05-04 11:12 42.03971 33.24704 35797 ft 477 kts 286°
2026-05-04 11:13 42.05597 33.16082 35801 ft 477 kts 286°
2026-05-04 11:13 42.07212 33.07502 35625 ft 474 kts 286°
2026-05-04 11:14 42.07483 33.06075 35695 ft 474 kts 287°
2026-05-04 11:16 42.15939 32.64634 35821 ft 477 kts 288°
2026-05-04 11:16 42.17671 32.56027 35811 ft 475 kts 288°
2026-05-04 11:17 42.19381 32.47471 35835 ft 474 kts 288°
2026-05-04 11:19 42.26153 32.13189 35836 ft 474 kts 287°
2026-05-04 11:19 42.27826 32.04606 35850 ft 473 kts 287°
2026-05-04 11:20 42.29488 31.96069 35838 ft 472 kts 288°
2026-05-04 11:20 42.31147 31.87527 35854 ft 473 kts 288°
2026-05-04 11:22 42.37754 31.53169 35884 ft 474 kts 288°
2026-05-04 11:23 42.39383 31.44585 35884 ft 473 kts 288°
2026-05-04 11:25 42.45063 31.14403 35885 ft 475 kts 288°
2026-05-04 11:25 42.46673 31.05751 35871 ft 474 kts 288°
2026-05-04 11:27 42.53824 30.66804 35928 ft 476 kts 288°
2026-05-04 11:28 42.55391 30.58161 35931 ft 475 kts 288°
2026-05-04 11:28 42.56957 30.49481 35942 ft 474 kts 288°
2026-05-04 11:29 42.58512 30.40823 35956 ft 475 kts 287°
2026-05-04 11:29 42.60107 30.32227 35958 ft 473 kts 290°
2026-05-04 11:31 42.73991 30.09076 35981 ft 453 kts 321°
2026-05-04 11:33 42.89942 29.88280 35981 ft 456 kts 320°
2026-05-04 11:33 42.94451 29.82277 35974 ft 454 kts 320°
2026-05-04 11:34 42.98947 29.76268 35984 ft 454 kts 320°
2026-05-04 11:34 43.03451 29.70239 35979 ft 455 kts 320°
2026-05-04 11:35 43.07952 29.64197 35990 ft 455 kts 320°
2026-05-04 11:35 43.12469 29.58121 35993 ft 456 kts 320°
2026-05-04 11:36 43.16966 29.52057 35993 ft 455 kts 320°